Tracking 28790 objects as of 19-Apr-2024
HD Live streaming from Space Station
objects crossing your sky now

SL-8 R/B

Track SL-8 R/B now!
10-day predictions


NORAD ID: 9613
Int'l Code: 1976-122B
Perigee: 956.5 km
Apogee: 1,002.5 km
Inclination: 82.9 °
Period: 104.5 minutes
Semi major axis: 7350 km
RCS: 4.5019 m2 (large)
Launch date: December 15, 1976
Source: Commonwealth of Independent States (former USSR) (CIS)
Launch site: PLESETSK MISSILE AND SPACE COMPLEX (PKMTR)

Note: This is a ROCKET BODY
Your satellite tracking list
Your tracking list is empty




NASA's NSSDC Master Catalog

Two Line Element Set (TLE):
1 09613U 76122B   24109.90572154  .00000128  00000-0  11227-3 0  9993
2 09613  82.9498  97.0433 0031310 127.0152 233.3878 13.77609770378934
Source of the keplerian elements: AFSPC